Home > Time Zones > World Clock > Weather > Chile > Arica > Past weeks

Flag for Chile Weather past 2 weeks in Arica, Chile

Now
75 °F

Sunny.


Feels Like: 78 °F
Forecast: 69 / 78 °F
Wind: 9 mph from Southwest

Location: Arica Airport

Current Time: Jan 26, 2015 at 12:36:08 PM

Latest Report: Jan 26, 2015 at 12:00 PM


Visibility: 10 mi

Pressure: 29.86 "Hg

Humidity: 57%

Dew point: 59 °F

Location of AricaLocation

Historic Weather in Arica — Graph

°F

Arica temperature yesterday

Maximum temperature yesterday: 75 °F (at 10:00 AM)
Minimum temperature yesterday: 66 °F (at 5:00 AM)
Average temperature yesterday: 71 °F

Past Weeks' High & Low Weather Summary

 TemperatureHumidityPressure
High77 °F (Jan 18, 2:00 PM)83% (Jan 21, 3:00 AM)30.07 "Hg (Jan 21, 3:00 AM)
Low63 °F (Jan 20, 6:00 AM)47% (Jan 22, 12:00 PM)29.80 "Hg (Jan 11, 6:00 PM)
Average71 °F64%29.94 "Hg
* Reported Jan 11 11:00 AM — Jan 26 11:00 AM, Arica, Weather by CustomWeather, © 2014

Note: Actual official high and low records may vary slightly from our data, if they occured in-between our weather recording intervals... More about our weather records

Advertising

Arica weather history for previous 24 hours

 ConditionsComfort  
Time TempWeatherWind HumidityBarometerVisibility
11:00 AM
Jan 26
75 °FSunny.8 mph54%29.86 "Hg10 mi
10:00 AM73 °FSunny.5 mph53%29.86 "Hg10 mi
9:00 AM72 °FSunny.5 mph53%29.86 "Hg10 mi
8:00 AM66 °FClear.7 mph60%29.83 "Hg10 mi
7:00 AM66 °FClear.5 mph60%29.80 "Hg10 mi
6:00 AM66 °FClear.2 mph60%29.80 "Hg10 mi
5:00 AM68 °FClear.6 mph56%29.83 "Hg10 mi
4:00 AM68 °FClear.3 mph56%29.83 "Hg10 mi
3:00 AM68 °FClear.2 mph60%29.86 "Hg10 mi
2:00 AM70 °FClear.2 mph60%29.89 "Hg10 mi
1:00 AM70 °FClear.No wind60%29.89 "Hg10 mi
12:00 AM70 °FClear.2 mph64%29.92 "Hg10 mi
11:00 PM
Jan 25
70 °FClear.3 mph64%29.92 "Hg10 mi
10:00 PM70 °FClear.2 mph69%29.89 "Hg10 mi
9:00 PM70 °FSunny.3 mph69%29.86 "Hg10 mi
8:00 PM72 °FSunny.6 mph65%29.86 "Hg10 mi
7:00 PM73 °FSunny.9 mph57%29.83 "Hg10 mi
6:00 PM73 °FSunny.12 mph53%29.83 "Hg10 mi
5:00 PM73 °FSunny.13 mph57%29.83 "Hg10 mi
4:00 PM73 °FSunny.15 mph57%29.86 "Hg10 mi
3:00 PM75 °FSunny.16 mph54%29.86 "Hg10 mi
2:00 PM75 °FSunny.14 mph54%29.86 "Hg10 mi
1:00 PM75 °FSunny.15 mph50%29.86 "Hg10 mi
12:00 PM75 °FSunny.12 mph50%29.89 "Hg10 mi
Weather by CustomWeather, © 2014

See weather overviewHow to use our weather pages